[[{"header":{"parameterUnit":"m.s-1","parameterCategory":1,"la1":30.2991,"la2":30.254,"lo1":-89.0895,"lo2":-89.0444,"dy":0.0017,"dx":0.0017,"nx":28,"ny":28,"refTime":"2023-10-06T09:00:00:Z","depth":0,"parameterNumber":2,"parameterNumberName":"U-component_of_WINDS"},"data":[0,0,0,0,0,0,0,0,0,0,0,0,0,0,0,0,0,0,0,0,0,0,0,0,0,0,0,0,0,0,0,0,0,0,0,0,0,0,0,0,0,0,0,0,0,0,0,0,0,0,0,0,0,0,0,0,0,0,-2.417,-2.4171,0,-2.4231,-2.4232,-2.4232,-2.4136,-2.4133,-2.4129,-2.4126,-2.4189,-2.4193,-2.4198,0,0,0,0,0,0,0,0,0,0,0,0,0,-2.3971,-2.3975,-2.417,-2.4171,-2.4172,-2.4231,-2.4232,-2.4232,-2.4137,-2.4132,-2.4128,-2.4125,-2.4187,-2.4193,-2.4198,0,0,0,0,0,0,0,0,0,0,0,0,0,-2.4047,-2.3976,-2.417,-2.4131,-2.4128,-2.4231,-2.4232,-2.4233,-2.4137,-2.4132,-2.4127,-2.4123,-2.4185,-2.4192,-2.4199,-2.4343,0,0,-2.4221,-2.4224,0,0,0,0,0,0,0,0,-2.4043,-2.4054,-2.4136,-2.4134,-2.4131,-2.4171,-2.4184,-2.427,-2.4139,-2.4134,-2.4126,-2.412,-2.4187,-2.4193,-2.4216,-2.4346,-2.4348,-2.4221,-2.4226,-2.4229,-2.4231,0,0,0,0,0,0,0,-2.4038,-2.4051,-2.4194,-2.4137,-2.4134,-2.411,-2.4115,-2.42,-2.4187,-2.4134,-2.4127,-2.4136,-2.4184,-2.4209,-2.4216,-2.4349,-2.4221,-2.4228,-2.4232,-2.4235,-2.4599,-2.4604,0,0,0,0,0,0,-2.4037,-2.4047,-2.4192,-2.4196,-2.4074,-2.4118,-2.4124,-2.4163,-2.4186,-2.4185,-2.414,-2.4131,-2.4199,-2.4208,-2.4218,-2.4388,-2.4229,-2.4235,-2.424,-2.4594,-2.46,-2.4606,0,0,0,0,0,0,-2.4033,-2.4051,-2.419,-2.412,-2.4136,-2.4126,-2.4171,-2.4167,-2.4191,-2.4191,-2.4188,-2.4167,-2.4196,-2.4208,-2.4312,-2.4389,-2.4239,-2.4245,-2.4587,-2.4596,-2.4603,-2.473,0,0,0,0,0,0,-2.4028,-2.405,-2.4105,-2.4122,-2.414,-2.4284,-2.4176,-2.4172,-2.4204,-2.4193,-2.4216,-2.4215,-2.4193,-2.4302,-2.4319,-2.4396,-2.4251,-2.458,-2.4591,-2.4601,-2.4719,-2.4741,-2.476,0,0,0,0,0,-2.4021,-2.4139,-2.4108,-2.4126,-2.4208,-2.4289,-2.4299,-2.4271,-2.4211,-2.4266,-2.4265,-2.4214,-2.4377,-2.4314,-2.4332,-2.4412,-2.4576,-2.4588,-2.46,-2.4709,-2.4737,-2.476,0,0,0,0,0,0,-2.4132,-2.414,-2.4107,-2.4233,-2.4261,-2.4272,-2.4341,-2.4301,-2.4346,-2.4334,-2.4297,-2.4303,-2.4415,-2.4423,-2.4352,-2.4552,-2.4466,-2.4483,-2.4543,-2.4569,-2.459,-2.4586,-2.4257,0,0,0,0,0,-2.4171,-2.4235,-2.4239,-2.435,-2.4365,-2.4351,-2.4385,-2.436,-2.4388,-2.4399,-2.4406,-2.4434,-2.4491,-2.453,-2.4583,-2.4718,-2.4722,-2.4782,-2.4803,-2.482,-2.4836,-2.4908,-2.4935,-2.4646,-2.4646,-2.4646,0,0,-2.4252,-2.4265,-2.4308,-2.4372,-2.4391,-2.4458,-2.4362,-2.4437,-2.4487,-2.441,-2.451,-2.4515,-2.4544,-2.4665,-2.4718,-2.4675,-2.4916,-2.4836,-2.4849,-2.4856,-2.4923,-2.495,-2.4975,-2.4654,-2.4653,-2.4651,0,0,-2.4436,-2.4451,-2.4546,-2.4566,-2.4595,-2.4584,-2.4607,-2.4624,-2.4625,-2.4723,-2.4667,-2.4725,-2.4825,-2.4848,-2.4873,-2.5062,-2.5018,-2.508,-2.519,-2.5261,-2.5284,-2.5304,-2.5373,-2.5398,-2.5095,-2.5095,-2.5096,0,-2.4534,-2.4634,-2.4599,-2.4679,-2.4709,-2.4642,-2.4737,-2.4758,-2.4803,-2.4825,-2.4776,-2.4899,-2.4914,-2.5039,-2.5085,-2.5107,-2.5132,-2.5079,-2.5283,-2.5303,-2.5321,-2.5386,-2.5412,-2.5103,-2.5102,-2.5101,-2.51,0,-2.4753,-2.4823,-2.4895,-2.4941,-2.4978,-2.5065,-2.5044,-2.5086,-2.5058,-2.5052,-2.5153,-2.5167,-2.5222,-2.5249,-2.5222,-2.537,-2.5343,-2.5289,-2.5203,-2.5357,-2.5417,-2.5442,-2.5114,-2.5111,-2.5109,-2.5107,0,0,-2.5011,-2.5035,-2.5062,-2.5081,-2.5107,-2.5161,-2.5244,-2.5297,-2.5334,-2.5366,-2.5435,-2.552,-2.547,-2.5498,-2.5473,-2.5535,-2.5685,-2.5473,-2.5473,-2.5513,-2.585,-2.5892,-2.5921,-2.5654,-2.5659,-2.5662,-2.5848,0,-2.5195,-2.534,-2.531,-2.5452,-2.5516,-2.5452,-2.5524,-2.5547,-2.5544,-2.5597,-2.5592,-2.5653,-2.5582,-2.5599,-2.5657,-2.5655,-2.5752,-2.564,-2.5719,-2.5722,-2.5717,-2.5953,-2.5998,-2.6172,-2.5871,-2.5875,-2.5878,0,-2.543,-2.5471,-2.5619,-2.5634,-2.566,-2.5726,-2.5771,-2.5823,-2.5848,-2.584,-2.5871,-2.5833,-2.5915,-2.5826,-2.5938,-2.5863,-2.5892,-2.5896,-2.5902,-2.591,-2.5812,-2.5969,-2.6227,-2.6254,-2.5915,-2.5912,-2.5909,0,-2.5606,-2.5698,-2.5798,-2.5816,-2.5836,-2.5884,-2.5894,-2.5913,-2.5947,-2.5986,-2.6007,-2.6055,-2.6083,-2.6121,-2.6097,-2.6033,-2.6214,-2.6122,-2.6211,-2.6212,-2.6254,-2.6252,-2.6522,-2.627,-2.6269,-2.6269,-2.6268,0,-2.5816,-2.5909,-2.5877,-2.5939,-2.6042,-2.6006,-2.6108,-2.611,-2.6128,-2.6189,-2.6135,-2.6193,-2.6157,-2.6212,-2.6194,-2.629,-2.6302,-2.6299,-2.6293,-2.6305,-2.6306,-2.6326,-2.6314,-2.6276,-2.6274,-2.6273,-2.6272,0,-2.6031,-2.6013,-2.6118,-2.6127,-2.6131,-2.6207,-2.6214,-2.6272,-2.6262,-2.634,-2.6356,-2.6342,-2.6404,-2.6383,-2.645,-2.6437,-2.656,-2.6538,-2.6553,-2.6548,-2.6638,-2.6631,-2.6933,-2.6971,-2.6692,-2.6695,-2.6697,0,-2.6168,-2.6238,-2.6254,-2.6291,-2.6305,-2.6365,-2.6399,-2.6365,-2.6402,-2.6435,-2.6488,-2.6545,-2.659,-2.6691,-2.6687,-2.6737,-2.6717,-2.6819,-2.6724,-2.6734,-2.672,-2.6717,-2.6725,-2.6839,-2.6842,-2.6845,-2.6847,0,-2.6412,-2.6399,-2.645,-2.6498,-2.6539,-2.6574,-2.6605,-2.6638,-2.6606,-2.665,-2.6713,-2.6747,-2.6814,-2.6872,-2.6917,-2.6926,-2.6882,-2.6876,-2.6899,-2.6914,-2.692,-2.6919,-2.6607,-2.687,-2.6868,-2.6866,-2.6865,-2.6864,-2.6593,-2.6653,-2.6674,-2.6731,-2.675,-2.678,-2.6835,-2.6832,-2.6883,-2.6936,-2.6912,-2.6985,-2.7005,-2.7061,-2.7077,-2.7133,-2.7093,-2.7127,-2.7136,-2.7145,-2.7158,-2.6909,-2.714,-2.7139,-2.7139,-2.7138,-2.7138,0,-2.6837,-2.6846,-2.69,-2.6944,-2.699,-2.6942,-2.6973,-2.7014,-2.7079,-2.7102,-2.7146,-2.7218,-2.7272,-2.7271,-2.7322,-2.7367,-2.7348,-2.7382,-2.7379,-2.7382,-2.7189,-2.7165,-2.7396,-2.7396,-2.7396,-2.7396,-2.7396,-2.7396,-2.6969,-2.7067,-2.7057,-2.7163,-2.7172,-2.7243,-2.7264,-2.7291,-2.7309,-2.7392,-2.7437,-2.7436,-2.7449,-2.75,-2.7548,-2.7546,-2.7568,-2.761,-2.7601,-2.7421,-2.7396,-2.7372,-2.7348,-2.7615,-2.7615,-2.7789,-2.7791,-2.7792]},{"header":{"parameterUnit":"m.s-1","parameterCategory":1,"la1":30.2991,"la2":30.254,"lo1":-89.0895,"lo2":-89.0444,"dy":0.0017,"dx":0.0017,"nx":28,"ny":28,"refTime":"2023-10-06T09:00:00:Z","depth":0,"parameterNumber":3,"parameterNumberName":"V-component_of_WINDS"},"data":[0,0,0,0,0,0,0,0,0,0,0,0,0,0,0,0,0,0,0,0,0,0,0,0,0,0,0,0,0,0,0,0,0,0,0,0,0,0,0,0,0,0,0,0,0,0,0,0,0,0,0,0,0,0,0,0,0,0,-7.1105,-7.1106,0,-7.1219,-7.1221,-7.1222,-7.1104,-7.11,-7.1095,-7.1091,-7.1201,-7.1208,-7.1216,0,0,0,0,0,0,0,0,0,0,0,0,0,-7.0778,-7.0785,-7.1105,-7.1107,-7.1108,-7.1219,-7.1221,-7.1222,-7.1105,-7.11,-7.1094,-7.1089,-7.1199,-7.1208,-7.1216,0,0,0,0,0,0,0,0,0,0,0,0,0,-7.0909,-7.0787,-7.1105,-7.1063,-7.1061,-7.1219,-7.1221,-7.1223,-7.1106,-7.1099,-7.1093,-7.1086,-7.1196,-7.1207,-7.1217,-7.1421,0,0,-7.125,-7.1255,0,0,0,0,0,0,0,0,-7.0902,-7.0921,-7.1068,-7.1066,-7.1064,-7.1141,-7.1146,-7.1289,-7.1108,-7.1089,-7.1091,-7.1083,-7.1186,-7.1197,-7.1234,-7.1426,-7.143,-7.1251,-7.1258,-7.1262,-7.1265,0,0,0,0,0,0,0,-7.0893,-7.0916,-7.115,-7.107,-7.1068,-7.1036,-7.1047,-7.1172,-7.1174,-7.109,-7.1082,-7.1097,-7.1184,-7.1224,-7.1235,-7.1432,-7.1251,-7.1261,-7.1267,-7.1271,-7.1794,-7.1801,0,0,0,0,0,0,-7.0889,-7.0909,-7.1146,-7.1153,-7.0964,-7.1048,-7.106,-7.1123,-7.1173,-7.1174,-7.1103,-7.1091,-7.1209,-7.1223,-7.1239,-7.1479,-7.1262,-7.1272,-7.1279,-7.1787,-7.1796,-7.1804,0,0,0,0,0,0,-7.0883,-7.0912,-7.1142,-7.1029,-7.1056,-7.1061,-7.1132,-7.1129,-7.1168,-7.1182,-7.1181,-7.1144,-7.1204,-7.1224,-7.1376,-7.1481,-7.1277,-7.1287,-7.1778,-7.1789,-7.18,-7.1962,0,0,0,0,0,0,-7.0874,-7.091,-7.0989,-7.1032,-7.1062,-7.128,-7.1138,-7.1136,-7.1188,-7.1174,-7.122,-7.1222,-7.12,-7.1361,-7.1387,-7.1492,-7.1296,-7.1768,-7.1783,-7.1796,-7.1947,-7.1977,-7.2003,0,0,0,0,0,-7.0863,-7.1029,-7.0994,-7.1023,-7.1162,-7.1286,-7.1304,-7.1277,-7.1197,-7.1275,-7.1284,-7.122,-7.1465,-7.1377,-7.1406,-7.1516,-7.1762,-7.1779,-7.1795,-7.1934,-7.1971,-7.2002,0,0,0,0,0,0,-7.0997,-7.1034,-7.0995,-7.1181,-7.1232,-7.1266,-7.1365,-7.1317,-7.139,-7.1373,-7.1335,-7.1347,-7.1508,-7.1527,-7.1428,-7.1714,-7.16,-7.1623,-7.1696,-7.1731,-7.1759,-7.175,-7.1304,0,0,0,0,0,-7.1049,-7.1149,-7.1175,-7.1336,-7.1364,-7.1361,-7.1414,-7.1389,-7.1439,-7.1459,-7.1479,-7.1528,-7.1615,-7.1674,-7.1756,-7.1949,-7.1956,-7.2038,-7.2066,-7.2089,-7.2109,-7.2211,-7.2247,-7.1858,-7.1858,-7.1858,0,0,-7.1156,-7.1188,-7.1254,-7.1364,-7.1401,-7.1503,-7.1379,-7.1493,-7.1568,-7.1475,-7.1621,-7.1637,-7.1689,-7.1863,-7.194,-7.1883,-7.2218,-7.211,-7.2128,-7.2136,-7.2232,-7.2269,-7.2301,-7.187,-7.1868,-7.1866,0,0,-7.1403,-7.1439,-7.1577,-7.1616,-7.1673,-7.1669,-7.1702,-7.1745,-7.1752,-7.1898,-7.1831,-7.1918,-7.207,-7.211,-7.215,-7.2411,-7.2354,-7.2438,-7.2584,-7.2683,-7.2714,-7.2741,-7.2833,-7.2867,-7.2459,-7.2459,-7.2459,0,-7.1529,-7.1683,-7.1653,-7.1772,-7.1822,-7.1745,-7.1882,-7.1921,-7.2001,-7.2036,-7.1971,-7.2161,-7.219,-7.2371,-7.2435,-7.247,-7.2505,-7.2433,-7.2712,-7.2739,-7.2764,-7.2851,-7.2886,-7.2469,-7.2468,-7.2467,-7.2466,0,-7.1834,-7.1941,-7.2045,-7.2127,-7.2188,-7.2316,-7.2303,-7.2368,-7.2337,-7.2339,-7.2488,-7.252,-7.2607,-7.2647,-7.2618,-7.2824,-7.2787,-7.2719,-7.2603,-7.2811,-7.2893,-7.2926,-7.2483,-7.2479,-7.2476,-7.2474,0,0,-7.217,-7.2233,-7.2272,-7.2307,-7.2364,-7.2445,-7.2568,-7.2655,-7.271,-7.2767,-7.2868,-7.2999,-7.2935,-7.2981,-7.2955,-7.3043,-7.3246,-7.2963,-7.2963,-7.3014,-7.3473,-7.3524,-7.3564,-7.3209,-7.3215,-7.322,-7.3468,0,-7.2418,-7.2635,-7.2611,-7.2816,-7.2914,-7.2841,-7.2948,-7.2993,-7.2998,-7.3079,-7.3083,-7.3177,-7.3086,-7.3113,-7.3197,-7.3204,-7.3338,-7.3185,-7.33,-7.3305,-7.329,-7.3606,-7.3661,-7.3894,-7.35,-7.3505,-7.3509,0,-7.2738,-7.2809,-7.3025,-7.3065,-7.3105,-7.3202,-7.3278,-7.3358,-7.3406,-7.3403,-7.3455,-7.3413,-7.3533,-7.3416,-7.358,-7.3478,-7.3522,-7.3533,-7.3541,-7.3551,-7.342,-7.3624,-7.3968,-7.4003,-7.3559,-7.3555,-7.3552,0,-7.2961,-7.311,-7.3258,-7.329,-7.3342,-7.3411,-7.3435,-7.3477,-7.353,-7.3596,-7.3629,-7.3708,-7.3751,-7.3811,-7.379,-7.3707,-7.3959,-7.384,-7.3958,-7.3959,-7.4014,-7.4011,-7.4371,-7.4045,-7.4044,-7.4043,-7.4043,0,-7.3241,-7.3376,-7.3359,-7.345,-7.3597,-7.3567,-7.3713,-7.3728,-7.3765,-7.3856,-7.3797,-7.3882,-7.385,-7.3933,-7.3918,-7.4056,-7.4075,-7.4075,-7.4069,-7.408,-7.4081,-7.4109,-7.4092,-7.4053,-7.4051,-7.4049,-7.4047,0,-7.3515,-7.351,-7.3666,-7.3702,-7.3714,-7.3821,-7.385,-7.3935,-7.3934,-7.405,-7.4075,-7.4074,-7.4169,-7.4154,-7.4259,-7.4248,-7.442,-7.4394,-7.4405,-7.4399,-7.4518,-7.4507,-7.4908,-7.4958,-7.46,-7.4604,-7.4607,0,-7.3695,-7.3797,-7.3844,-7.3902,-7.3931,-7.4024,-7.4078,-7.4051,-7.411,-7.4172,-7.4248,-7.4338,-7.4408,-7.4562,-7.4569,-7.4649,-7.4624,-7.4759,-7.4635,-7.4643,-7.4625,-7.462,-7.4629,-7.4784,-7.4788,-7.4791,-7.4794,0,-7.4013,-7.4005,-7.4087,-7.4168,-7.4234,-7.4296,-7.4351,-7.4401,-7.4378,-7.4446,-7.4544,-7.4598,-7.4705,-7.4795,-7.4869,-7.489,-7.4838,-7.4833,-7.4864,-7.4877,-7.4878,-7.4878,-7.4471,-7.4824,-7.4821,-7.4818,-7.4817,-7.4816,-7.4245,-7.4332,-7.4379,-7.4471,-7.451,-7.4563,-7.4644,-7.4654,-7.4735,-7.4822,-7.48,-7.491,-7.4953,-7.5047,-7.5077,-7.516,-7.511,-7.5156,-7.5167,-7.5179,-7.5193,-7.4865,-7.5174,-7.5173,-7.5172,-7.5171,-7.5171,0,-7.4559,-7.4586,-7.4671,-7.4752,-7.4824,-7.477,-7.4828,-7.4891,-7.4989,-7.5035,-7.5106,-7.5216,-7.5302,-7.5316,-7.5397,-7.5461,-7.5439,-7.5483,-7.5478,-7.5483,-7.5234,-7.5198,-7.5499,-7.5499,-7.5499,-7.5499,-7.5499,-7.5499,-7.4732,-7.4876,-7.4873,-7.5035,-7.5059,-7.5168,-7.5206,-7.5253,-7.529,-7.5417,-7.5488,-7.5497,-7.553,-7.5612,-7.5688,-7.5689,-7.5721,-7.5775,-7.5767,-7.5534,-7.5501,-7.547,-7.5436,-7.5782,-7.5782,-7.6009,-7.6011,-7.6013]}]]